Weather History for Richlands, VA

Change the Weather History Date:

Tuesday, October 2, 2012

  Actual Average (KBLF) Record (KBLF)
Temperature  
Mean Temperature 69 °F 60 °F  
Max Temperature 78 °F 69 °F 81 °F (1969)
Min Temperature 60 °F 51 °F 31 °F (2003)
Degree Days  
Heating Degree Days 0 6  
Month to date heating degree days 12  
Since 1 July heating degree days 91  
Cooling Degree Days 4 1  
Month to date cooling degree days 2  
Year to date cooling degree days 834  
Growing Degree Days 19 (Base 50)    
Moisture  
Dew Point 63 °F    
Average Humidity 86    
Maximum Humidity 100    
Minimum Humidity 61    
Precipitation  
Precipitation 0.00 in 0.09 in 0.87 in (1996)
Month to date precipitation 0.18  
Year to date precipitation 31.71  
Snow  
Snow 0.00 in - - ()
Month to date snowfall  
Since 1 July snowfall  
Since 1 September snowfall  
Snow Depth -    
Sea Level Pressure  
Sea Level Pressure 29.86 in    
Wind  
Wind Speed 7 mph (SSE)    
Max Wind Speed 14 mph    
Max Gust Speed 18 mph    
Visibility 10 miles    
Events      
T = Trace of Precipitation, MM = Missing Value Source: NWS Daily Summary

Daily Weather History Graph

Daily Weather History Graph

Search for Another Location

Airport:

Trip Planner

Search our weather history database for the weather conditions in past years. The results will help you decide how hot, cold, wet, or windy it might be!

Date:

Astronomy

Oct. 02, 2012 Rise Set
Actual Time 7:23 AM EDT 7:08 PM EDT
Civil Twilight 6:57 AM EDT 7:34 PM EDT
Nautical Twilight 6:27 AM EDT 8:04 PM EDT
Astronomical Twilight 5:57 AM EDT 8:34 PM EDT
Moon 8:25 PM EDT (10/2) 9:45 AM EDT (10/2)
Length of Visible Light 12h 36m
Length of Day
11h 44m
Waning Gibbous, 94% of the Moon is Illuminated
Oct 2
Waning Gibbous
Oct 8
Last Quarter
Oct 15
New
Oct 21
First Quarter
Oct 29
Full

Hourly Weather History & Observations

Time (EDT) Temp. Dew Point Humidity Pressure Visibility Wind Dir Wind Speed Gust Speed Precip Events Conditions
12:55 AM 60.8 °F 60.8 °F 100% 29.80 in 5.0 mi ESE 9.2 mph - N/A   Scattered Clouds
1:35 AM 60.8 °F 60.8 °F 100% 29.81 in 10.0 mi Variable 4.6 mph - N/A   Scattered Clouds
1:55 AM 62.6 °F 62.6 °F 100% 29.80 in 10.0 mi SE 10.4 mph - N/A   Mostly Cloudy
2:15 AM 60.8 °F 60.8 °F 100% 29.80 in 10.0 mi Variable 6.9 mph - N/A   Scattered Clouds
2:35 AM 62.6 °F 62.6 °F 100% 29.80 in 10.0 mi SSE 12.7 mph - N/A   Scattered Clouds
2:55 AM 62.6 °F 62.6 °F 100% 29.81 in 10.0 mi Variable 6.9 mph - N/A   Mostly Cloudy
3:15 AM 62.6 °F 62.6 °F 100% 29.81 in 10.0 mi SE 8.1 mph - N/A   Mostly Cloudy
3:35 AM 62.6 °F 62.6 °F 100% 29.80 in 8.0 mi Variable 6.9 mph - N/A   Scattered Clouds
3:55 AM 62.6 °F 62.6 °F 100% 29.81 in 10.0 mi SSE 9.2 mph - N/A   Clear
4:15 AM 62.6 °F 62.6 °F 100% 29.82 in 7.0 mi Variable 4.6 mph - N/A   Scattered Clouds
4:35 AM 60.8 °F 60.8 °F 100% 29.80 in 5.0 mi SSE 8.1 mph - N/A   Mostly Cloudy
4:55 AM 60.8 °F 60.8 °F 100% 29.80 in 6.0 mi SE 5.8 mph - N/A   Mostly Cloudy
5:15 AM 60.8 °F 60.8 °F 100% 29.81 in 9.0 mi Variable 6.9 mph - N/A   Partly Cloudy
5:35 AM 60.8 °F 60.8 °F 100% 29.80 in 10.0 mi Variable 4.6 mph - N/A   Partly Cloudy
5:55 AM 62.6 °F 62.6 °F 100% 29.80 in 10.0 mi SSE 3.5 mph - N/A   Partly Cloudy
6:15 AM 62.6 °F 62.6 °F 100% 29.80 in 9.0 mi SE 8.1 mph - N/A   Partly Cloudy
6:35 AM 62.6 °F 62.6 °F 100% 29.81 in 10.0 mi SSE 6.9 mph - N/A   Scattered Clouds
6:55 AM 62.6 °F 62.6 °F 100% 29.82 in 10.0 mi Calm Calm - N/A   Scattered Clouds
7:15 AM 62.6 °F 62.6 °F 100% 29.82 in 10.0 mi Variable 4.6 mph - N/A   Scattered Clouds
7:35 AM 62.6 °F 62.6 °F 100% 29.82 in 10.0 mi Variable 3.5 mph - N/A   Partly Cloudy
7:55 AM 62.6 °F 62.6 °F 100% 29.83 in 9.0 mi Calm Calm - N/A   Mostly Cloudy
8:15 AM 62.6 °F 62.6 °F 100% 29.83 in 10.0 mi Variable 3.5 mph - N/A   Mostly Cloudy
8:35 AM 64.4 °F 64.4 °F 100% 29.84 in 10.0 mi Variable 3.5 mph - N/A   Mostly Cloudy
9:15 AM 66.2 °F 66.2 °F 100% 29.84 in 10.0 mi SE 3.5 mph - N/A   Mostly Cloudy
9:35 AM 66.2 °F 66.2 °F 100% 29.85 in 10.0 mi Variable 4.6 mph - N/A   Scattered Clouds
9:55 AM 68.0 °F 66.2 °F 94% 29.84 in 10.0 mi SSE 9.2 mph - N/A   Partly Cloudy
10:15 AM 66.2 °F 66.2 °F 100% 29.85 in 10.0 mi Variable 4.6 mph - N/A   Scattered Clouds
10:35 AM 66.2 °F 66.2 °F 100% 29.86 in 10.0 mi Variable 6.9 mph - N/A   Overcast
10:55 AM 68.0 °F 66.2 °F 94% 29.86 in 10.0 mi SSE 8.1 mph - N/A   Overcast
11:15 AM 68.0 °F 66.2 °F 94% 29.87 in 10.0 mi Variable 5.8 mph - N/A   Overcast
11:35 AM 68.0 °F 66.2 °F 94% 29.87 in 10.0 mi SSE 6.9 mph - N/A   Scattered Clouds
11:55 AM 69.8 °F 66.2 °F 88% 29.87 in 10.0 mi Variable 6.9 mph - N/A   Mostly Cloudy
12:15 PM 69.8 °F 68.0 °F 94% 29.87 in 10.0 mi SSE 9.2 mph - N/A   Mostly Cloudy
12:35 PM 69.8 °F 68.0 °F 94% 29.86 in 10.0 mi SSE 4.6 mph - N/A   Partly Cloudy
12:55 PM 69.8 °F 68.0 °F 94% 29.86 in 10.0 mi Variable 4.6 mph - N/A   Partly Cloudy
1:15 PM 73.4 °F 69.8 °F 88% 29.84 in 10.0 mi Variable 5.8 mph - N/A   Scattered Clouds
1:35 PM 75.2 °F 69.8 °F 83% 29.84 in 10.0 mi Variable 6.9 mph - N/A   Scattered Clouds
1:55 PM 73.4 °F 69.8 °F 88% 29.83 in 10.0 mi SSE 5.8 mph - N/A   Partly Cloudy
2:15 PM 73.4 °F 69.8 °F 88% 29.82 in 10.0 mi Variable 5.8 mph - N/A   Partly Cloudy
2:35 PM 75.2 °F 69.8 °F 83% 29.82 in 10.0 mi Variable 5.8 mph - N/A   Clear
3:15 PM 78.8 °F 69.8 °F 74% 29.82 in 10.0 mi South 12.7 mph - N/A   Partly Cloudy
3:35 PM 78.8 °F 66.2 °F 65% 29.82 in 10.0 mi South 13.8 mph - N/A   Partly Cloudy
3:55 PM 78.8 °F 66.2 °F 65% 29.82 in 10.0 mi Variable 6.9 mph - N/A   Clear
4:15 PM 78.8 °F 66.2 °F 65% 29.83 in 10.0 mi South 8.1 mph - N/A   Clear
4:35 PM 77.0 °F 64.4 °F 65% 29.84 in 10.0 mi SSE 10.4 mph - N/A   Clear
4:55 PM 77.0 °F 64.4 °F 65% 29.85 in 10.0 mi South 9.2 mph - N/A   Clear
5:15 PM 77.0 °F 62.6 °F 61% 29.85 in 10.0 mi SSE 9.2 mph - N/A   Clear
5:35 PM 75.2 °F 62.6 °F 65% 29.87 in 10.0 mi SSE 9.2 mph 18.4 mph N/A   Clear
5:55 PM 75.2 °F 60.8 °F 61% 29.88 in 10.0 mi South 10.4 mph - N/A   Clear
6:15 PM 73.4 °F 60.8 °F 65% 29.89 in 10.0 mi South 9.2 mph - N/A   Clear
6:35 PM 73.4 °F 62.6 °F 69% 29.89 in 10.0 mi SSE 6.9 mph - N/A   Clear
6:55 PM 71.6 °F 60.8 °F 69% 29.90 in 10.0 mi SSE 6.9 mph - N/A   Clear
7:15 PM 69.8 °F 60.8 °F 73% 29.91 in 10.0 mi SSE 6.9 mph - N/A   Clear
7:35 PM 69.8 °F 60.8 °F 73% 29.92 in 10.0 mi South 6.9 mph - N/A   Clear
7:55 PM 69.8 °F 59.0 °F 68% 29.93 in 10.0 mi Variable 4.6 mph - N/A   Clear
8:15 PM 68.0 °F 59.0 °F 73% 29.95 in 10.0 mi Variable 5.8 mph - N/A   Clear
8:35 PM 66.2 °F 59.0 °F 78% 29.96 in 10.0 mi Calm Calm - N/A   Clear
8:55 PM 66.2 °F 59.0 °F 78% 29.97 in 10.0 mi Calm Calm - N/A   Clear
9:15 PM 66.2 °F 59.0 °F 78% 29.98 in 10.0 mi WSW 3.5 mph - N/A   Clear
9:35 PM 66.2 °F 57.2 °F 73% 29.98 in 10.0 mi SW 4.6 mph - N/A   Clear
9:55 PM 66.2 °F 57.2 °F 73% 29.99 in 10.0 mi Calm Calm - N/A   Clear
10:15 PM 64.4 °F 57.2 °F 77% 29.99 in 10.0 mi Calm Calm - N/A   Clear
10:35 PM 64.4 °F 57.2 °F 77% 30.00 in 10.0 mi Calm Calm - N/A   Clear
10:55 PM 64.4 °F 57.2 °F 77% 30.00 in 10.0 mi Variable 3.5 mph - N/A   Clear
11:15 PM 64.4 °F 57.2 °F 77% 30.00 in 10.0 mi Calm Calm - N/A   Clear
11:35 PM 64.4 °F 57.2 °F 77% 30.01 in 10.0 mi Calm Calm - N/A   Clear
11:55 PM 64.4 °F 57.2 °F 77% 30.01 in 10.0 mi Variable 3.5 mph - N/A   Clear